West Ford 1 Dispenser

unknown
NORAD ID: 194 Int'l Des: 1961 A DE Owner: AFSSD Country: US
MEORETROGRADE

关于 West Ford 1 Dispenser

正在加载描述...

实时位置

正在加载3D地球...

即将过境

高度历史

Altitude vs Time

uPlot chart will show altitude changes over time

两行轨道根数

1 00194U 61028C 25340.03001471 .00000055 00000-0 23893-1 0 9997
2 00194 95.8277 207.9734 0413124 11.5307 349.4683 8.70110832 36330
Epoch: Dec 6, 2025 • Age: 41 hours

当前状态

高度 3616.0 km
速度 6.32 km/s
星下点 -78.41°S, 101.55°W
类型 other

大型星座

Loading constellations...